Regional Weather Roundup
Issued by NWS Burlington, VT

Home | Current Version | Previous Version | Text Only | Print | Product List | Glossary On
Versions: 1 2 3 4 5 6 7 8 9 10 11 12 13 14 15 16 17 18 19 20 21 22 23 24 25 26 27 28 29 30 31 32 33 34 35 36 37 38 39 40 41 42 43 44 45 46 47 48 49 50
000
ASUS41 KBTV 291430
RWRBTV
VERMONT REGIONAL WEATHER ROUNDUP
NATIONAL WEATHER SERVICE BURLINGTON VT
1000 AM EDT FRI APR 29 2016

NOTE: "FAIR" INDICATES FEW OR NO CLOUDS BELOW 12,000 FEET WITH NO
SIGNIFICANT WEATHER AND/OR OBSTRUCTIONS TO VISIBILITY.

* THESE REPORTS ARE NOT UNDER NWS QUALITY CONTROL AND/OR DO NOT
  REPORT WEATHER SUCH AS PRECIPITATION AND FOG.

VTZ001>019-291500-
_____VERMONT_____


CITY           SKY/WX    TMP DP  RH WIND       PRES   REMARKS
BURLINGTON     FAIR      45  18  34 CALM      30.17S
MONTPELIER     FAIR      42  22  44 SE8       30.19F
MORRISVILLE    FAIR      42  16  34 VRB5      30.18F
ST. JOHNSBURY*   N/A     42  17  36 MISG      30.16F
LYNDONVILLE*   FAIR      42  18  37 SE7       30.17F
MIDDLEBURY*    FAIR      47  21  36 CALM      30.15S
RUTLAND*       FAIR      46  25  42 SE13      30.14S
SPRINGFIELD    CLOUDY    42  20  41 VRB3      30.18F
HIGHGATE*      FAIR      44  20  38 N7        30.17F
NEWPORT*       FAIR      42  20  41 SW5       30.16F
BENNINGTON     FAIR      49  32  52 MISG      30.12S
GALLUP MILLS*    N/A     43 N/A N/A MISG        N/A
UNION VILLAGE*   N/A     45 N/A N/A MISG        N/A
MT. MANSFIELD*   N/A     32 N/A N/A NW5         N/A  WCI  27

_____LAKE CHAMPLAIN_____


CITY           SKY/WX    TMP DP  RH WIND       PRES   REMARKS
COLCHESTER RF*   N/A     37  30  75 N7          N/A
DIAMOND ISL*     N/A     39  27  60 N12         N/A  WCI  32

$$

NYZ007-026>031-035-052-083-087-291500-
_____NORTHERN NEW YORK_____


CITY           SKY/WX    TMP DP  RH WIND       PRES   REMARKS
PLATTSBURGH    SUNNY     42  21  43 E5        30.18S
SARANAC LAKE   SUNNY     43  11  27 NE8       30.07F
MASSENA        SUNNY     45  18  34 NE17      30.18S
OGDENSBURG*    SUNNY     48  21  34 NE10      30.14F
POTSDAM*       SUNNY     18   0  45 E9        30.13  WCI   6
STARK FALLS*     N/A     45 N/A N/A S3          N/A
WATERTOWN      SUNNY     49  25  39 NE7       30.09F
FT DRUM        SUNNY     48  23  37 VRB3      30.08F
ALBANY         MOSUNNY   49  26  41 CALM      30.14F
GLENS FALLS    SUNNY     47  23  38 CALM      30.14F

$$
NHZ002-005-011-291500-
_____NEW HAMPSHIRE_____


CITY           SKY/WX    TMP DP  RH WIND       PRES   REMARKS
LEBANON        CLOUDY    43  20  39 CALM      30.17F
KEENE          SUNNY     48  28  46 SE5       30.17S
MT WASHINGTON  MOSUNNY   21  14  73 W25         N/A  WCI   4
PLYMOUTH       CLOUDY    41  16  35 CALM      30.21S
WHITEFIELD     SUNNY     44  16  32 VRB3      30.16S

$$

_____REGIONAL QUEBEC LOCATIONS_____


CITY           SKY/WX    TMP DP  RH WIND       PRES   REMARKS
MONTREAL       MOSUNNY   43  14  31 NE10      30.21S
QUEBEC CITY    SUNNY     37   9  30 CALM      30.21F
SHERBROOKE     SUNNY     39  14  35 CALM      30.17S

_____REGIONAL ONTARIO LOCATIONS_____


CITY           SKY/WX    TMP DP  RH WIND       PRES   REMARKS
OTTAWA         MOSUNNY   43  16  33 NE14      30.19S

______KEY______
VSB  - VISIBILITY IN MILES
WCI  - WIND CHILL INDEX
HX   - HEAT INDEX
$$
NNNN




USA.gov is the U.S. government's official web portal to all federal, state and local government web resources and services.